Obihiro, Japan

12:12 PM JST on August 23, 2017 (GMT +0900)
Obihiro

Weather History for RJCB - November, 2012

Change the Weather History Date:

Sunday, November 18, 2012

  Actual Average Record
Temperature  
Mean Temperature 38 °F -  
Max Temperature 44 °F 33 °F 55 °F (1997)
Min Temperature 32 °F 18 °F 19 °F (2005)
Degree Days  
Heating Degree Days 27    
Moisture  
Dew Point 33 °F    
Average Humidity 88    
Maximum Humidity 100    
Minimum Humidity 70    
Precipitation  
Precipitation 0.00 in - - ()
Sea Level Pressure  
Sea Level Pressure 29.45 in    
Wind  
Wind Speed 7 mph ()    
Max Wind Speed 18 mph    
Max Gust Speed 30 mph    
Visibility 3.9 miles    
Events Rain , Snow    
Averages and records for this station are not official NWS values.
T = Trace of Precipitation, MM = Missing Value Source: Averaged Metar Reports

Daily Weather History Graph

Daily Weather History Graph

Search for Another Location

Airport or City:

Trip Planner

Search our weather history database for the weather conditions in past years. The results will help you decide how hot, cold, wet, or windy it might be!

Date:

Astronomy

Nov. 18, 2012 Rise Set
Actual Time 6:22 AM JST 4:01 PM JST
Civil Twilight 5:51 AM JST 4:32 PM JST
Nautical Twilight 5:17 AM JST 5:06 PM JST
Astronomical Twilight 4:43 AM JST 5:40 PM JST
Moon 10:22 AM JST (11/18) 8:37 PM JST (11/18)
Length of Visible Light 10h 40m
Length of Day
9h 39m
Waxing Crescent, 24% of the Moon is Illuminated
Nov 18
Waxing Crescent
Nov 20
First Quarter
Nov 28
Full
Dec 7
Last Quarter
Dec 13
New

Hourly Weather History & Observations

Time (JST) Temp. Windchill Dew Point Humidity Pressure Visibility Wind Dir Wind Speed Gust Speed Precip Events Conditions
8:00 AM 39.2 °F 37.0 °F 35.6 °F 87% 29.39 in 6.2 mi NNE 3.5 mph - N/A   Mostly Cloudy
9:00 AM 41.0 °F 38.0 °F 35.6 °F 81% 29.39 in 6.2 mi North 4.6 mph - N/A   Mostly Cloudy
10:00 AM 41.0 °F 39.0 °F 35.6 °F 81% 29.39 in 6.2 mi North 3.5 mph - N/A Rain Light Rain Showers
11:00 AM 41.0 °F - 35.6 °F 81% 29.39 in 6.2 mi Variable 1.2 mph - N/A Rain Light Rain Showers
12:00 PM 44.6 °F - 37.4 °F 76% 29.36 in 6.2 mi Variable 2.3 mph - N/A   Scattered Clouds
1:00 PM 41.0 °F 37.1 °F 33.8 °F 76% 29.33 in 6.2 mi Variable 5.8 mph 21.9 mph N/A Rain Light Rain Showers
1:31 PM 37.4 °F 30.8 °F 33.8 °F 87% 29.36 in - Variable 9.2 mph 23.0 mph N/A Rain , Snow Light Rain Showers
1:37 PM 35.6 °F 26.6 °F 32.0 °F 87% 29.36 in - NNW 13.8 mph - N/A   Light Small Hail Showers
1:43 PM 35.6 °F 25.5 °F 33.8 °F 93% 29.36 in 1.4 mi NNW 17.3 mph 29.9 mph N/A   Light Small Hail Showers
1:46 PM 35.6 °F 25.2 °F 32.0 °F 87% 29.36 in 1.2 mi NNE 18.4 mph 29.9 mph N/A   Light Small Hail Showers
2:00 PM 35.6 °F 26.2 °F 32.0 °F 87% 29.36 in 1.6 mi NE 15.0 mph - N/A   Small Hail
2:07 PM 33.8 °F 24.8 °F 32.0 °F 93% 29.39 in 1.6 mi NE 12.7 mph - N/A Snow Light Snow Showers
2:33 PM 33.8 °F 27.0 °F 32.0 °F 93% 29.42 in - NNE 8.1 mph - N/A Snow Light Snow Showers
2:43 PM 33.8 °F 28.6 °F 33.8 °F 100% 29.42 in 3.1 mi NNE 5.8 mph - N/A Rain Light Rain Showers
3:00 PM 35.6 °F 29.2 °F 32.0 °F 87% 29.42 in 4.3 mi North 8.1 mph - N/A Rain Light Rain Showers
3:37 PM 33.8 °F 24.8 °F 33.8 °F 100% 29.47 in 3.7 mi NNW 12.7 mph - N/A Rain , Snow Light Rain Showers
3:49 PM 33.8 °F 24.8 °F 32.0 °F 93% 29.50 in - NNW 12.7 mph - N/A Snow Light Snow Showers
3:50 PM 33.8 °F 25.3 °F 32.0 °F 93% 29.50 in - NNW 11.5 mph - N/A Snow Light Snow Showers
4:00 PM 32.0 °F 24.2 °F 32.0 °F 100% 29.50 in 0.5 mi NW 9.2 mph - N/A Snow Snow Showers
4:09 PM 32.0 °F 24.8 °F 32.0 °F 100% 29.50 in 0.7 mi NW 8.1 mph - N/A Snow Light Snow Showers
4:32 PM 32.0 °F 23.6 °F 32.0 °F 100% 29.53 in 0.5 mi NW 10.4 mph - N/A Snow Snow Showers
4:50 PM 32.0 °F 25.6 °F 32.0 °F 100% 29.53 in 0.7 mi NW 6.9 mph - N/A Snow Light Snow Showers
5:00 PM 33.8 °F 29.6 °F 32.0 °F 93% 29.53 in 6.2 mi NW 4.6 mph - N/A   Mostly Cloudy
6:00 PM 35.6 °F 27.1 °F 28.4 °F 75% 29.59 in 6.2 mi NNW 12.7 mph - N/A   Mostly Cloudy
7:00 PM 35.6 °F 26.6 °F 26.6 °F 70% 29.65 in 6.2 mi NW 13.8 mph - N/A   Mostly Cloudy
8:00 PM 33.8 °F 25.8 °F 26.6 °F 75% 29.68 in 6.2 mi NW 10.4 mph - N/A   Scattered Clouds